Regional Weather Roundup
Issued by NWS Newport/Morehead, NC

Current Version | Previous Version | Graphics & Text | Print | Product List | Glossary Off
Versions: 1 2 3 4 5 6 7 8 9 10 11 12 13 14 15 16 17 18 19 20 21 22 23 24 25 26 27 28 29 30 31 32 33 34 35 36 37 38 39 40 41 42 43 44 45 46 47 48 49 50

000
ASUS42 KMHX 210410
RWRMHX
WEATHER ROUNDUP FOR EASTERN NORTH CAROLINA
NATIONAL WEATHER SERVICE NEWPORT/MOREHEAD CITY NC
1100 PM EST SAT DEC 20 2014

NOTE: "FAIR" INDICATES FEW OR NO CLOUDS BELOW 12,000 FEET
WITH NO SIGNIFICANT WEATHER AND/OR OBSTRUCTIONS TO VISIBILITY

NCZ015>017-031-032-045>047-102-103-210500-
NORTH COAST

CITY           SKY/WX    TMP DP  RH WIND       PRES   REMARKS
EDENTON          N/A     32  29  91 CALM      30.29S
ELIZABETH CITY CLEAR     39  31  72 N6        30.29F
KITTY HAWK     CLEAR     40  33  77 N5        30.26F
MANTEO         CLEAR     39  33  80 N7        30.27F

$$

NCZ045>047-081-094-103-104-210500-
CENTRAL COAST

CITY           SKY/WX    TMP DP  RH WIND       PRES   REMARKS
FRISCO         CLEAR     42  37  82 VRB3      30.26F
SWANQUARTER      N/A     39 N/A N/A N8        30.24S

$$

NCZ095-097-098-100-101-210500-
SOUTHERN COAST

CITY           SKY/WX    TMP DP  RH WIND       PRES   REMARKS
BEAUFORT       CLOUDY    40  37  89 NE5       30.27S
CEDAR ISLAND     N/A     43 N/A N/A N13       30.30S
JACKSONVILLE   PTCLDY    37  35  92 N5        30.27S
PINEY ISLAND   CLEAR     43  35  73 N7        30.27S
WILMINGTON     CLOUDY    39  37  92 NE7       30.26F


$$

NCZ011>013-027>030-043-044-078>080-089-090>093-098-210500-
COASTAL PLAIN

CITY           SKY/WX    TMP DP  RH WIND       PRES   REMARKS
AHOSKIE        MOCLDY    33  31  92 CALM      30.30S
CLINTON        CLEAR     35  35 100 CALM      30.28F FOG
ELIZABETHTOWN  CLOUDY    37  37 100 CALM      30.27S FOG
GOLDSBORO      PTCLDY    37  36  98 CALM      30.27
GREENVILLE     CLOUDY    39  36  87 CALM      30.29S
HAVELOCK       FAIR      39  35  86 N6        30.28F
KENANSVILLE    CLEAR     32  32 100 CALM      30.29S FOG
KINSTON        PTCLDY    38  37  92 CALM      30.28F
NEW BERN       CLEAR     39  34  82 CALM      30.29S
RICHLANDS      CLEAR     34  30  86 CALM      30.28S VSB 1
ROCKY MOUNT    MOCLDY    36  34  92 CALM      30.29S
WASHINGTON     CLOUDY    39  34  81 N3        30.29S
WHITEVILLE     CLOUDY    39  37  91 CALM      30.27R FOG

$$

AMZ130-135-150-152-154-156-158-170-250-252-270-ANZ085-086-088-633-658-670-210500-
MARINE OBSERVATIONS

STATION/POSITION TIME  TEMP    WIND        PRES    WAVE   SWELL
                       AIR SEA DIR/SP/G            HT/PER HT/PER
                 (UTC) (F)     (DEG/KT/KT) (MB)    (FT/S) (FT/S)
CHESAPEAKE LIGHT 0300   39      10/  9/ 10 1026.3
64 E VA BEACH    0400   43 54  360/ 10/ 12 1024.8    2/ 5   2/ 5
DUCK             0400   42 46   10/  8/ 10 1024.4
2 E DUCK         0400      46                N/A     2/ 5
10 NE DUCK       0400      52                N/A     2/ 6
OREGON INLET     0400   42 48  350/  5/  8 1024.9
13E OREGON INLT  0400      52                N/A     3/ 5
HATTERAS CG      0400   45 50   20/  8/ 11 1025.0
DIAMOND BUOY     0400   48                 1024.6    3/ 4
17 S OCRACOKE    NOT AVBL
CAPE LOOKOUT     0300   44      20/ 10/ 13 1024.5
BEAUFORT LAB     0400   41 52   20/  5/  6 1023.8
30 SE NEW RIVER  0400   50 61   40/ 16/ 19 1024.2    3/ 5   2/ 7
5 SE WRIGHTSVLE  NOT AVBL
225 S CAPE HAT   0321   65 71   90/ 19/ 25 1020.5    5/ 5   2/11
41 SE CHARLESTON 0400   62 68   30/ 19/ 21 1021.2    5/ 5   2/10

$$


USA.gov is the U.S. government's official web portal to all federal, state and local government web resources and services.